www.pogodaiklimat.ru
ПОГОДА в Суссексе
Время
(UTC), дата
23:53 05.12
00:53 05.12
01:53 05.12
02:53 05.12
03:53 05.12
04:53 06.12
05:53 06.12
06:53 06.12
07:53 06.12
08:53 06.12
09:53 06.12
10:53 06.12
11:53 06.12
12:53 06.12
13:53 06.12
14:53 06.12
15:53 06.12
16:53 06.12
17:53 06.12
18:53 06.12
19:53 06.12
20:53 06.12
21:53 06.12
22:53 06.12
23:53 06.12
00:53 06.12
01:53 06.12
02:53 06.12
03:53 06.12
04:53 07.12
05:53 07.12
06:53 07.12
07:53 07.12
08:53 07.12
09:53 07.12
10:53 07.12
11:53 07.12
12:53 07.12
13:53 07.12
14:53 07.12
15:53 07.12
16:53 07.12
17:53 07.12
18:53 07.12
19:53 07.12
20:53 07.12
21:53 07.12
22:53 07.12
Ветер
(напр.,м/с)
Видим. Явления Облачность Т
(С)
Тd
(С)
f
(%)
Тe
(С)
Тes
(С)
Комфортность P
(гПа)
Po
(гПа)
Тmin
(С)
Tmax
(С)
R
(мм)
R24
(мм)
S
(см)
нст 1 16 км 8/8 1650 м +1.7 -5.0 61 -1 -1 1015.7 1000.5
нст 3 16 км 10/10 1500 м +1.7 -5.6 58 -3 -3 1016.8 1001.5
З 3 16 км 10/10 1380 м +1.7 -6.7 54 -2 -2 1017.9 1002.5
16 км 10/10 1170 м +1.1 -5.6 61 +1 +1 1018.4 1002.8
ЮЗ 2 16 км 10/10 1200 м +1.1 -6.1 59 -2 -2 1018.8 1003.5
0 16 км 10/10 1200 м +1.1 -7.2 54 +1 +1 1019.3 1003.8 +0.6 +1.7
З 3 16 км 10/10 1200 м +0.6 -7.2 56 -3 -3 1019.8 1004.5
0 16 км 5/5 1200 м -1.1 -6.7 66 -2 -2 1019.8 1004.2
З 1 16 км неопределенные осадки ясно -2.8 -6.1 78 -6 -6 1019.6 1004.2
0 16 км 5/0 3600 м
[средняя]
-2.8 -5.6 81 -4 -4 1019.4 1003.8
0 16 км 8/0 3600 м
[средняя]
-2.8 -5.6 81 -4 -4 1019.4 1003.8
0 16 км ясно -2.2 -5.6 77 -3 -3 1019.5 1003.8 -3.9 +1.1
0 16 км 10/0 2400 м
[средняя]
-1.7 -5.0 78 -3 -3 1019.0 1003.5
Ю 1 16 км 10/0 2250 м
[средняя]
0.0 -4.4 72 -3 -3 1018.5 1002.8
ЮЗ 3 16 км 10/0 2400 м
[средняя]
+1.1 -3.9 69 -3 -3 1018.3 1002.8
ЮЗ 3 16 км 10/0 2250 м
[средняя]
+2.2 -3.3 67 -2 -1 1016.8 1001.5
ЮЗ 3 16 км 10/0 2400 м
[средняя]
+3.3 -2.8 64 -0 +1 1015.2 999.8
ЮЗ 3 16 км 10/0 2550 м
[средняя]
+5.0 -2.8 57 +2 +3 1014.1 998.8 -2.8 +5.0
ЮЗ 3 16 км 10/0 2400 м
[средняя]
+5.6 -2.2 57 +2 +3 1013.0 997.8
ЮЗ 2 16 км 10/0 2550 м
[средняя]
+5.6 -1.7 59 +3 +4 1012.9 997.5
нст 2 16 км 10/8 1800 м
[средняя]
+5.6 -1.7 59 +3 +3 1012.7 997.5
16 км 10/10 1380 м +5.6 -1.1 62 +5 +5 1014.1 998.8
ЮЗ 2 16 км 10/10 1500 м +5.6 -1.7 59 +3 +3 1014.9 999.5
16 км 10/10 1110 м +6.1 -1.1 60 +6 +6 1016.4 1001.2 +5.0 +6.1
СЗ 4
{9}
16 км 2/2 1950 м +5.0 -3.9 53 +1 +1 1018.1 1002.8
нст 2 16 км ясно +3.3 -4.4 57 0 0 1019.1 1003.8
0 16 км ясно +2.2 -4.4 62 +2 +2 1020.2 1004.8
нст 1 16 км ясно +1.7 -6.7 54 -0 -0 1021.1 1005.5
0 16 км 10/10 1350 м +1.1 -6.7 56 +1 +1 1021.7 1006.2
нст 3 16 км 10/10 1500 м +0.6 -6.1 61 -4 -4 1022.3 1006.8 -1.1 +6.1
СЗ 3 16 км 8/8 1500 м +0.6 -7.8 53 -3 -3 1022.9 1007.5
З 2 16 км ясно -1.1 -8.3 58 -5 -5 1023.7 1008.2
0 16 км ясно -1.1 -8.9 55 -2 -2 1024.2 1008.8
0 16 км ясно -3.9 -8.9 68 -5 -5 1024.8 1009.2
0 16 км ясно -5.6 -8.9 78 -6 -6 1025.7 1010.2
0 16 км ясно -6.1 -8.9 81 -7 -7 1026.7 1011.2 -6.1 +1.1
0 16 км ясно -3.9 -8.3 71 -5 -5 1027.2 1011.5
нст 1 16 км ясно -1.7 -8.3 61 -4 -4 1027.9 1012.2
СЗ 2 16 км 5/5 1290 м 0.0 -9.4 49 -4 -3 1028.6 1012.8
С 4
{8}
16 км 2/2 1440 м +1.1 -10.0 43 -4 -3 1028.4 1012.8
нст 3 16 км 5/5 1500 м +1.7 -10.0 41 -2 -1 1028.1 1012.5
СЗ 4 16 км слабый дождь 8/8 1500 м +2.2 -10.0 40 -3 -2 1027.9 1012.5 -6.1 +2.2
С 4 16 км 2/2 1440 м +1.7 -9.4 43 -3 -1 1028.2 1012.5
нст 3 16 км 2/2 1440 м +1.7 -9.4 43 -2 -0 1028.4 1012.8
нст 2 16 км ясно +0.6 -10.0 45 -3 -2 1029.0 1013.2
0 16 км ясно 0.0 -10.0 47 -0 -0 1029.9 1014.2
0 16 км ясно -0.6 -10.6 47 -1 -1 1030.8 1014.8
0 16 км ясно -3.9 -9.4 66 -5 -5 1031.1 1015.2 -4.4 +2.2
Местоположение метеостанции Sussex Airport: широта 41.1993 долгота -74.6259 высота над уровнем моря 125 м.
В архиве по умолчанию представлена погода в Суссексе за последние 1-2 суток. Обновление информации о фактической погоде в базе происходит ежечасно! Архивные данные за месяц целиком и за предыдущие месяцы Вы можете получить, выбрав интересующий диапазон дат из раскрывающегося списка и нажав кнопку "Ввод!".
Внимание! Архив погоды МЕТАР в базе сайта по станциям, не включенным в климатический монитор, хранится не более 60 дней. Нет смысла пытаться выбрать более раннюю дату.
*Определитесь, кто Вы:
Внимание! Время в таблицах - всемирное. Для получения местного времени необходимо прибавить поправку, которая равна ч.
Смотрите также архив погоды в соседних городах и на ближайших метеорологических станциях:
Партнеры нашего сайта:      
Пояснения к столбцам:
  • Ветер - указаны скорость ветра в м/с - средняя за 10 мин, порывы в срок и между сроками (в фигурных скобках) и направление, откуда дует ветер: С - северный,
  • СВ - северо-восточный, В - восточный, ЮВ - юго-восточный, Ю - южный, ЮЗ - юго-западный, З - западный, СЗ - северо-западный.
  • Видимость - горизонтальная дальность видимости в метрах или километрах. При видимости от 1 до 10 км при отсутствии осадков обычно наблюдается дымка, при ухудшении видимости до 1 км и менее - туман. В сухую погоду видимость может ухудшаться дымом, пылью или мглою.
  • Явления - указаны атмосферные явления, наблюдавшиеся в срок или в последний час перед сроком; фигурными скобками обозначены явления, наблюдавшиеся между сроками (за 1-3 часа до срока); квадратными скобками обозначены град или гололедные отложения с указанием их диаметра в мм.
  • Облачность - указаны через наклонную черту общая и нижняя облачность в баллах и высота нижней границы облаков в метрах; квадратными скобками обозначены формы облаков: Ci - перистые, Cs - перисто-слоистые, Cc - перисто-кучевые, Ac - высококучевые, As - высокослоистые, Sc - слоисто-кучевые, Ns - слоисто-дождевые, Cu - кучевые, Cb - кучево-дождевые. Подробнее классификацию облаков см. в Атласе облаков (PDF).
  • T - Температура воздуха - температура, измеренная на высоте 2 м над землей.
  • Td - Температура точки росы - температура, при понижении до которой содержащийся в воздухе водяной пар достигнет насыщения.
  • f - Относительная влажность воздуха - влажноcть воздуха, измеренная на высоте 2 м над землей.
  • Te - Эффективная температура - температура, которую ощущает одетый по сезону человек в тени. Характеристика душности погоды. При расчете учитывается влияние влажности воздуха и скорости ветра на теплоощущения человека.
  • Tes - Эффективная температура на солнце - температура, которую ощущает человек, с поправкой на солнечный нагрев. Характеристика знойности погоды. Зависит от высоты солнца над горизонтом, облачности и скорости ветра. Ночью, в пасмурную погоду, а также при ветре 12 м/с и более поправка равна нулю.
  • P - Атмосферное давление - приведенное к уровню моря атмосферное давление.
  • Po - Атмосферное давление - измеренное на уровне метеостанции атмосферное давление.
  • Tmin - Минимальная температура - минимум температуры воздуха на высоте 2 м над землей.
  • Tmax - Максимальная температура - максимум температуры воздуха на высоте 2 м над землей.
  • R - Количество осадков - Количество выпавших осадков за период времени, мм. При наведении курсора мыши на число - период времени, за который выпало указанное количество осадков.
  • R24 - Количество осадков - Количество выпавших осадков за 24 часа, мм.
  • S - Снежный покров - Высота снежного покрова, см. При наведении курсора мыши на число - состояние снежного покрова и степень покрытия местности в баллах.